Location: Newark
(40.3500°N, 15.2333°E)
Time: 16:07:12
(UTC+00:00)

A-11 Canister half - All Passes

Search period start: 19 January 2020 00:00
Search period end: 29 January 2020 00:00
Orbit: 1525 x 1684 km, 47.3° (Epoch: 19 January)

Date Brightness Start Highest point End Pass type
(mag) Time Alt. Az. Time Alt. Az. Time Alt. Az.
19 Jan - 01:04:21 10° WNW 01:13:50 53° SW 01:23:31 10° SSE visible
19 Jan - 03:12:56 10° W 03:17:18 14° WSW 03:21:42 10° SSW visible
19 Jan - 16:22:45 10° SSW 16:30:51 35° SE 16:39:07 10° ENE visible
19 Jan - 18:25:41 10° WSW 18:35:07 89° NNW 18:44:53 10° ENE visible
19 Jan - 20:31:32 10° W 20:40:56 58° N 20:50:41 10° ENE visible
19 Jan - 22:37:23 10° WNW 22:47:08 72° NNE 22:57:11 10° ESE visible
20 Jan - 00:42:41 10° WNW 00:52:12 55° SW 01:01:57 10° SSE night (unlit)
20 Jan - 02:50:48 10° W 02:55:44 15° WSW 03:00:44 10° SSW visible
20 Jan - 16:01:21 10° S 16:09:17 33° SE 16:17:22 10° ENE daylight
20 Jan - 18:04:03 10° WSW 18:13:28 89° SSE 18:23:13 10° ENE visible
20 Jan - 20:09:51 10° W 20:19:14 59° N 20:28:57 10° ENE visible
20 Jan - 22:15:45 10° WNW 22:25:27 70° NNE 22:35:27 10° ESE visible
21 Jan - 00:21:01 10° WNW 00:30:34 58° SW 00:40:22 10° SE night (unlit)
21 Jan - 02:28:45 10° W 02:34:10 16° WSW 02:39:39 10° SSW visible
21 Jan - 15:39:57 10° S 15:47:43 31° SE 15:55:36 10° ENE daylight
21 Jan - 17:42:27 10° WSW 17:51:50 86° SSE 18:01:32 10° ENE visible
21 Jan - 19:48:10 10° W 19:57:32 59° N 20:07:14 10° ENE visible
21 Jan - 21:54:05 10° WNW 22:03:45 69° NNE 22:13:43 10° E visible
21 Jan - 23:59:21 10° WNW 00:08:56 60° SW 00:18:46 10° SE night (unlit)
22 Jan - 02:06:46 10° W 02:12:36 17° SW 02:18:31 10° SSW night (unlit)
22 Jan - 15:18:35 10° S 15:26:10 29° SE 15:33:51 10° ENE daylight
22 Jan - 17:20:51 10° SW 17:30:12 84° SSE 17:39:51 10° ENE visible
22 Jan - 19:26:29 10° W 19:35:50 59° N 19:45:31 10° ENE visible
22 Jan - 21:32:26 10° WNW 21:42:04 67° NNE 21:52:00 10° E visible
22 Jan - 23:37:42 10° WNW 23:47:18 63° SW 23:57:11 10° SE night (unlit)
23 Jan - 01:44:50 10° W 01:51:02 19° SW 01:57:20 10° SSW night (unlit)
23 Jan - 14:57:13 10° S 15:04:36 27° SE 15:12:04 10° ENE daylight
23 Jan - 16:59:14 10° SW 17:08:34 81° SSE 17:18:11 10° ENE visible
23 Jan - 19:04:49 10° W 19:14:08 60° N 19:23:47 10° ENE visible
23 Jan - 21:10:48 10° WNW 21:20:22 66° NNE 21:30:16 10° E visible
23 Jan - 23:16:03 10° WNW 23:25:40 66° SW 23:35:34 10° SE night (unlit)
24 Jan - 01:22:56 10° W 01:29:27 20° SW 01:36:06 10° SSW night (unlit)
24 Jan - 14:35:54 10° S 14:43:03 26° SE 14:50:17 10° ENE daylight
24 Jan - 16:37:38 10° SW 16:46:57 78° SSE 16:56:31 10° ENE visible
24 Jan - 18:43:08 10° W 18:52:27 61° N 19:02:05 10° ENE visible
24 Jan - 20:49:08 10° WNW 20:58:40 65° NNE 21:08:31 10° E visible
24 Jan - 22:54:24 10° WNW 23:04:02 68° SW 23:13:57 10° SE night (unlit)
25 Jan - 01:01:04 10° W 01:07:53 21° SW 01:14:49 10° S night (unlit)
25 Jan - 14:14:35 10° S 14:21:30 24° SE 14:28:29 10° ENE daylight
25 Jan - 16:16:04 10° SW 16:25:20 75° SE 16:34:50 10° ENE visible
25 Jan - 18:21:27 10° W 18:30:45 61° N 18:40:22 10° ENE visible
25 Jan - 20:27:29 10° WNW 20:36:59 64° NNE 20:46:47 10° E visible
25 Jan - 22:32:45 10° WNW 22:42:23 71° SW 22:52:19 10° SE visible
26 Jan - 00:39:13 10° W 00:46:18 23° SW 00:53:31 10° S night (unlit)
26 Jan - 13:53:18 10° S 13:59:57 22° SE 14:06:39 10° E daylight
26 Jan - 15:54:28 10° SW 16:03:42 73° SE 16:13:10 10° ENE daylight
26 Jan - 17:59:46 10° W 18:09:04 62° NNW 18:18:39 10° ENE visible
26 Jan - 20:05:50 10° WNW 20:15:17 63° NNE 20:25:04 10° E visible
26 Jan - 22:11:07 10° WNW 22:20:45 73° SW 22:30:42 10° SE visible
27 Jan - 00:17:25 10° WNW 00:24:44 24° SW 00:32:11 10° S night (unlit)
27 Jan - 13:32:02 10° S 13:38:24 21° SE 13:44:49 10° E daylight
27 Jan - 15:32:54 10° SW 15:42:06 70° SE 15:51:30 10° ENE daylight
27 Jan - 17:38:06 10° W 17:47:23 63° NNW 17:56:58 10° ENE visible
27 Jan - 19:44:10 10° WNW 19:53:35 62° NNE 20:03:19 10° E visible
27 Jan - 21:49:28 10° WNW 21:59:06 76° SW 22:09:03 10° SE visible
27 Jan - 23:55:38 10° WNW 00:03:09 26° SW 00:10:50 10° S night (unlit)
28 Jan - 13:10:48 10° SSE 13:16:51 20° SE 13:22:57 10° E daylight
28 Jan - 15:11:19 10° SW 15:20:29 67° SE 15:29:50 10° ENE daylight
28 Jan - 17:16:25 10° W 17:25:42 64° NNW 17:35:16 10° ENE visible
28 Jan - 19:22:31 10° WNW 19:31:53 61° N 19:41:34 10° E visible
28 Jan - 21:27:50 10° WNW 21:37:28 79° SSW 21:47:24 10° SE visible
28 Jan - 23:33:51 10° WNW 23:41:34 27° SW 23:49:27 10° S night (unlit)
